Location: Unspecified
(0.0000°N, 0.0000°E)
Time: 22:54:50
(UTC+00:00)

Vanguard 1 - All Passes

Search period start: 28 May 2022 00:00
Search period end: 07 June 2022 00:00
Orbit: 649 x 3833 km, 34.3° (Epoch: 28 May)

Date Brightness Start Highest point End Pass type
(mag) Time Alt. Az. Time Alt. Az. Time Alt. Az.
28 May - 01:07:56 10° NW 01:16:12 18° N 01:27:20 10° NNE visible
28 May - 03:36:03 10° NNW 03:49:21 20° NNE 04:04:20 10° NE visible
28 May - 06:01:02 10° NW 06:22:07 39° NNE 06:39:36 10° E daylight
28 May - 08:27:07 10° NW 08:50:16 85° NE 09:04:20 10° SE daylight
28 May - 10:58:35 10° W 11:13:59 34° SW 11:23:23 10° SSE daylight
28 May - 20:42:30 10° SW 20:47:52 84° SE 20:57:10 10° NE visible
28 May - 23:03:54 10° WNW 23:10:44 27° NNW 23:21:36 10° NNE visible
29 May - 01:31:08 10° NW 01:39:11 16° N 01:49:29 10° NNE visible
29 May - 03:57:39 10° NNW 04:12:44 23° NNE 04:29:08 10° ENE visible
29 May - 06:21:59 10° NW 06:44:19 48° NNE 07:01:55 10° E daylight
29 May - 08:48:45 10° WNW 09:11:29 79° SW 09:25:07 10° SE daylight
29 May - 11:22:26 10° W 11:34:55 24° SW 11:43:10 10° S daylight
29 May - 18:46:00 10° S 18:48:47 15° SE 18:52:00 10° ESE visible
29 May - 21:03:15 10° WSW 21:08:45 62° NNW 21:18:17 10° NE visible
29 May - 23:26:10 10° WNW 23:32:42 20° NNW 23:42:14 10° NNE visible
30 May - 01:54:04 10° NNW 02:02:26 15° N 02:12:47 10° NE visible
30 May - 04:18:49 10° NNW 04:35:48 27° NNE 04:53:32 10° ENE visible
30 May - 06:42:58 10° NW 07:06:14 59° NE 07:23:45 10° ESE daylight
30 May - 09:10:44 10° WNW 09:32:33 63° SW 09:45:41 10° SE daylight
30 May - 11:47:19 10° WSW 11:56:03 17° SW 12:02:30 10° S daylight
30 May - 19:05:23 10° SSW 19:09:22 28° SE 19:14:37 10° E visible
30 May - 21:24:21 10° W 21:29:52 40° NNW 21:39:06 10° NE visible
30 May - 23:49:01 10° NW 23:54:56 16° N 00:02:54 10° NNE visible
31 May - 02:16:21 10° NNW 02:25:48 16° N 02:37:19 10° NE visible
31 May - 04:39:44 10° NNW 04:58:29 33° NNE 05:17:17 10° E visible
31 May - 07:04:03 10° NW 07:27:55 72° NE 07:45:11 10° ESE daylight
31 May - 09:33:11 10° WNW 09:53:32 49° SW 10:06:02 10° SSE daylight
31 May - 12:14:16 10° SW 12:17:30 11° SW 12:20:21 10° SSW daylight
31 May - 19:25:27 10° SW 19:29:56 51° SE 19:36:23 10° ENE visible
31 May - 21:45:53 10° W 21:51:16 27° NNW 21:59:39 10° NNE visible
01 Jun - 00:12:22 10° NNW 00:17:28 13° N 00:23:48 10° NNE visible
01 Jun - 02:37:54 10° NNW 02:49:06 18° NNE 03:02:38 10° NE visible
01 Jun - 05:00:32 10° NNW 05:20:50 41° NNE 05:40:22 10° E visible
01 Jun - 07:25:19 10° NW 07:49:24 87° NE 08:06:18 10° SE daylight
01 Jun - 09:56:15 10° W 10:14:34 37° SW 10:26:12 10° SSE daylight
01 Jun - 19:45:56 10° SW 19:50:36 88° NW 19:57:39 10° NE visible
01 Jun - 22:07:56 10° WNW 22:12:52 19° NNW 22:19:57 10° NNE visible
02 Jun - 00:35:50 10° NNW 00:40:15 12° N 00:45:27 10° NNE visible
02 Jun - 02:58:57 10° NNW 03:12:11 22° NNE 03:27:59 10° ENE visible
02 Jun - 05:21:18 10° NW 05:42:54 50° NE 06:02:51 10° ESE visible
02 Jun - 07:46:51 10° WNW 08:10:42 78° SW 08:27:09 10° SE daylight
02 Jun - 10:20:04 10° W 10:35:43 28° SW 10:46:11 10° SSE daylight
02 Jun - 17:48:58 10° S 17:51:28 14° SE 17:54:05 10° ESE daylight
02 Jun - 20:06:47 10° WSW 20:11:26 51° NNW 20:18:31 10° NE visible
02 Jun - 22:30:42 10° NW 22:34:45 14° NNW 22:39:54 10° NNE visible
03 Jun - 00:58:30 10° N 01:03:15 12° N 01:08:48 10° NNE visible
03 Jun - 03:19:42 10° NNW 03:34:56 27° NNE 03:52:49 10° ENE visible
03 Jun - 05:42:08 10° NW 06:04:43 61° NE 06:24:49 10° ESE daylight
03 Jun - 08:08:44 10° WNW 08:31:56 64° SW 08:47:47 10° SE daylight
03 Jun - 10:44:47 10° WSW 10:57:07 21° SW 11:05:56 10° S daylight
03 Jun - 18:08:24 10° SSW 18:12:12 27° SE 18:16:28 10° E daylight
03 Jun - 20:28:03 10° W 20:32:30 31° NNW 20:39:02 10° NNE visible
03 Jun - 22:54:56 10° NNW 22:56:51 11° N 22:58:58 10° N visible
04 Jun - 01:19:55 10° N 01:26:19 13° NNE 01:34:00 10° NE visible
04 Jun - 03:40:19 10° NNW 03:57:21 33° NNE 04:16:55 10° E visible
04 Jun - 06:03:05 10° NW 06:26:20 74° NE 06:46:22 10° ESE daylight
04 Jun - 08:31:05 10° WNW 08:53:08 51° SW 09:08:14 10° SSE daylight
04 Jun - 11:10:40 10° WSW 11:18:49 15° SSW 11:25:13 10° S daylight
04 Jun - 18:28:34 10° SW 18:32:51 53° SE 18:38:00 10° ENE visible
04 Jun - 20:49:52 10° WNW 20:53:50 20° NNW 20:59:10 10° NNE visible
05 Jun - 01:40:38 10° NNW 01:49:17 16° NNE 02:00:02 10° NE visible
05 Jun - 04:00:53 10° NNW 04:19:26 41° NE 04:40:15 10° E visible
05 Jun - 06:24:14 10° NW 06:47:49 88° NE 07:07:34 10° SE daylight
05 Jun - 08:54:02 10° W 09:14:25 40° SW 09:28:32 10° SSE daylight
05 Jun - 11:39:27 10° SW 11:40:52 10° SSW 11:42:12 10° SSW daylight
05 Jun - 18:49:09 10° WSW 18:53:32 78° NW 18:59:02 10° NE visible
05 Jun - 21:12:36 10° NW 21:15:21 13° NNW 21:18:39 10° N visible
06 Jun - 02:01:03 10° NNW 02:12:00 20° NNE 02:25:56 10° ENE visible
06 Jun - 04:21:29 10° NW 04:41:15 50° NE 05:02:56 10° ESE visible
06 Jun - 06:45:38 10° WNW 07:09:14 78° SW 07:28:31 10° SE daylight
06 Jun - 09:17:42 10° W 09:35:52 31° SW 09:48:43 10° SSE daylight
06 Jun - 16:51:09 10° S 16:54:13 17° SSE 16:57:05 10° ESE daylight
06 Jun - 19:10:10 10° WSW 19:14:20 40° NNW 19:19:38 10° NE visible
